Location: Arlington
(40.6323°N, 74.1651°W)
Time: 05:16:28
(UTC+00:00)

Cosmos 2263 Rocket - Pass Details

Date: 22 November 2019
Orbit: 825 x 847 km, 71.0° (Epoch: 10 December)

Event Time Altitude Azimuth Distance (km) Brightness Sun altitude
Rises 22:10:27 0° 346° (NNW) 3,371 5.3 -7.2°
Reaches altitude 10° 22:13:18 10° 359° (N) 2,434 4.4 -7.7°
Maximum altitude 22:17:55 26° 55° (NE) 1,582 3.1 -8.5°
Drops below altitude 10° 22:22:30 10° 111° (ESE) 2,427 4.1 -9.3°
Sets 22:25:20 0° 124° (SE) 3,358 5.0 -9.8°
